Showing default

NIMIQ 6, 38342

Orbit data source: Space-Track

NIMIQ 6, 38342 is a payload satellite owned by Telesat (Loral) (CA) in GEO that was launched on Thu, 17 May 2012 UTC via a PROTON-M/BRIZ-M launch vehicle from the Tyuratam Missile And Space Complex (TTMTR). Payload-class satellites include a variety of spacecraft equipped with specific instruments for various scientific and technological missions. These include communications satellites like Starlink; space stations such as the ISS; scientific satellites like the Hubble; Earth observation satellites from companies like Planet Labs, Umbra, and HawkEye 360; GPS; miniature CubeSats for education and research; and military/defense satellites.

Loading next visibility...
Identifier
38342, 2012-026A
Orbit
GEO
Country
Flag of CACA
Related business
Manufacturer
SS/Loral
Mission
Operational Commercial Communications
Bus & Motor
SSL-1300, R-4D
Mass
4,745 kg wet, ~2,000 kg dry
Launch date (UTC)
2012-05-17 (13 years ago)
Launch vehicle
PROTON-M/BRIZ-M
Launch site
Tyuratam Missile And Space Complex (TTMTR)
Object type
Payload
Rocket body
Debris
Shape & HBR
Box + 2 Pan, 13.0 m
Radar Cross Section
34.256 m², Large (>1 m²)

Expand to show TLE details & history
Last TLE update: 10 hours ago

TLE from 10 hours ago
0 NIMIQ 6
1 38342U 12026A   25309.28267701 -.00000162  00000-0  00000-0 0  9993
2 38342   0.0406  71.6465 0003087 156.2299 187.5822  1.00271489 48167
Epoch: 2025-11-05T06:47Z
TLE epoch observation values (Epoch: 2025-11-05T06:47:03.293Z)
Latitude
0.00998°
Longitude
-91.10593°
Altitude
35,799.137 km
Speed
3.074 km/s
True Right ascension
03h 41m 39s
True Declination
0° 00' 36"
Sunlit
Object was in daylight at epoch
Visualization orbit readout
Latitude
Unknown
Longitude
Unknown
Altitude
Unknown
Speed
Unknown
Apparent Right ascension
Unknown
Apparent Declination
Unknown
Sunlit
N/A
Visualization observer readout
Local Sidereal Time
12:25:22
Azimuth
Unknown
Elevation
Unknown
Doppler factor
Unknown
Orbital elements
Apogee altitude
35,800.765 km
Perigee altitude
35,774.732 km
Semi-major axis
42,165.885 km
Eccentricity
0.00031
Inclination
0.0406°
RAAN
71.6465°
Arg. of periapsis
156.2299°
True anomaly
187.57753°
Mean anomaly
187.5822°
Eccentric anomaly
187.57987°
Mean motion
0.25067 °/min
Orbital period
1,436.15 mins
BSTAR
0
Loading maneuver chart data...
Computing Atmospheric mass density...
Loading historical data...
Loading historical data...
Loading historical data...
Loading historical data...
Loading historical data...
Loading historical data...
Loading historical data...

Documentation

Showing up to 5 results
|